Simultaneous Nadir Overpasses (SNOs) Predictions

Prediction of SNOs between GOES-16 and METOP-C Satellite Orbit:

Table of predicted SNOs for the next 14.0 days since TLE Epoch: 8/24/2024
Index Date Time (GOES-16) GOES-16 Lat,Lon METOP-C Lat,Lon Distance(km) Time Diff (sec)
1 08/24/2024 14:17:23 -0.03, -75.21 -0.87, -71.44 428.95 80
2 08/26/2024 02:33:42 0.04, -75.21 -0.13, -76.04 93.99 80
3 08/27/2024 02:15:41 0.03, -75.21 0.96, -71.03 476.25 80
4 08/28/2024 14:31:53 -0.03, -75.23 0.05, -75.59 41.04 80
5 08/31/2024 02:32:52 0.03, -75.24 0.08, -75.18 8.29 80
6 09/02/2024 14:28:21 -0.03, -75.29 -0.13, -74.73 63.59 80
7 09/04/2024 02:50:00 0.03, -75.31 -0.89, -79.31 456.58 80
8 09/05/2024 02:26:40 0.03, -75.33 0.28, -74.32 115.46 80
9 09/06/2024 14:48:11 -0.03, -75.37 0.74, -78.87 398.90 80
